Regional Weather Roundup
Issued by NWS

Home | Current Version | Previous Version | Text Only | Print | Product List | Glossary On
Versions: 1 2 3 4 5 6 7 8 9 10 11 12 13 14 15 16 17 18 19 20 21 22 23 24 25 26 27 28 29 30 31 32 33 34 35 36 37 38 39 40 41 42 43 44 45 46 47 48 49 50
584
ASUS43 KLSX 212357
RWRMO

WEATHER SUMMARY FOR MISSOURI
NATIONAL WEATHER SERVICE SPRINGFIELD MO
700 PM CDT THU SEP 21 2017

NOTE: "FAIR" INDICATES FEW OR NO CLOUDS BELOW 12,000 FEET WITH NO
       SIGNIFICANT WEATHER AND/OR OBSTRUCTIONS TO VISIBILITY.
       CURRENT SKY AND/OR WEATHER CONDITIONS ARE NOT AVAILABLE FOR
       CHILLICOTHE AND FARMINGTON.

MOZ001>031-035>038-043-044-053-054-220100-
...NORTHERN AND WESTERN MISSOURI...

CITY           SKY/WX    TMP DP  RH WIND       PRES   REMARKS
KANSAS CTY INT PTCLDY    85  73  67 S16       29.84S HX  91
6HR MIN TEMP:  85; 6HR MAX TEMP:  90;

LEE`S SUMMIT   CLEAR     87  73  62 S10       29.87S HX  94
6HR MIN TEMP:  87; 6HR MAX TEMP:  91;

ST JOSEPH      CLEAR     87  74  64 S17G28    29.81S HX  95
6HR MIN TEMP:  87; 6HR MAX TEMP:  93;

CHILLICOTHE      N/A     86  71  60 S6        29.87R HX  91
6HR MIN TEMP:  83; 6HR MAX TEMP:  92;


$$
MOZ066>068-077>081-088>096-101>105-220100-
...SOUTHWEST MISSOURI...

CITY           SKY/WX    TMP DP  RH WIND       PRES   REMARKS
SPRINGFIELD    CLEAR     86  67  52 S10       29.93S
6HR MIN TEMP:  86; 6HR MAX TEMP:  93;

BRANSON        PTCLDY    84  66  54 S9        29.97S

$$
MOZ032>034-039>042-045>050-055>058-069>072-220100-
...CENTRAL MISSOURI...

CITY           SKY/WX    TMP DP  RH WIND       PRES   REMARKS
COLUMBIA       NOT AVBL
JEFFERSON CITY CLEAR     86  71  60 SE5       29.91R HX  91
6HR MIN TEMP:  86; 6HR MAX TEMP:  92;

ROLLA          PTCLDY    85  67  54 SE8       29.97R
6HR MIN TEMP:  85; 6HR MAX TEMP:  94;

SEDALIA        CLEAR     86  72  62 SE8       29.91S HX  92
6HR MIN TEMP:  86; 6HR MAX TEMP:  92;

WARRENSBURG    PTCLDY    84  70  61 SE7       29.87S

$$
MOZ051-052-059>065-220100-
...EAST CENTRAL MISSOURI...

CITY           SKY/WX    TMP DP  RH WIND       PRES   REMARKS
ST LOUIS INTL  MOCLDY    87  69  54 SE14      29.95F HX  91
6HR MIN TEMP:  85; 6HR MAX TEMP:  89;


$$
MOZ072>076-082>087-097>100-106>115-220100-
...SOUTH CENTRAL AND SOUTHEAST MISSOURI...

CITY           SKY/WX    TMP DP  RH WIND       PRES   REMARKS
CAPE GIRARDEAU CLEAR     81  68  64 SE6       29.97S
6HR MIN TEMP:  81; 6HR MAX TEMP:  93;

POPLAR BLUFF   CLEAR     83  72  69 SW3       29.96S
6HR MIN TEMP:  83; 6HR MAX TEMP:  94;

WEST PLAINS    CLEAR     85  66  53 S6        30.00R
6HR MIN TEMP:  85; 6HR MAX TEMP:  92;


$$



USA.gov is the U.S. government's official web portal to all federal, state and local government web resources and services.